TimeEDT,TemperatureF,Dew PointF,Humidity,Sea Level PressureIn,VisibilityMPH,Wind Direction,Wind SpeedMPH,Gust SpeedMPH,PrecipitationIn,Events,Conditions,WindDirDegrees,DateUTC
12:53 AM,30.9,19.0,61,30.27,10.0,Calm,Calm,-,N/A,,Clear,0,2013-04-03 04:53:00
1:53 AM,28.9,19.0,67,30.29,10.0,Calm,Calm,-,N/A,,Clear,0,2013-04-03 05:53:00
2:53 AM,27.0,19.9,75,30.28,10.0,Calm,Calm,-,N/A,,Clear,0,2013-04-03 06:53:00
3:53 AM,26.1,19.0,75,30.29,10.0,Calm,Calm,-,N/A,,Clear,0,2013-04-03 07:53:00
4:53 AM,25.0,19.0,78,30.29,10.0,Calm,Calm,-,N/A,,Clear,0,2013-04-03 08:53:00
5:53 AM,23.0,19.0,85,30.29,10.0,North,3.5,-,N/A,,Clear,350,2013-04-03 09:53:00
6:53 AM,24.1,18.0,77,30.30,10.0,Calm,Calm,-,N/A,,Clear,0,2013-04-03 10:53:00
7:53 AM,26.1,19.0,75,30.34,10.0,Calm,Calm,-,N/A,,Clear,0,2013-04-03 11:53:00
8:53 AM,33.1,18.0,54,30.38,10.0,NE,3.5,-,N/A,,Clear,50,2013-04-03 12:53:00
9:53 AM,37.0,16.0,42,30.39,9.0,ENE,8.1,-,N/A,,Clear,60,2013-04-03 13:53:00
10:53 AM,41.0,14.0,33,30.40,10.0,East,9.2,-,N/A,,Clear,100,2013-04-03 14:53:00
11:53 AM,44.1,14.0,30,30.39,10.0,ENE,8.1,-,N/A,,Clear,70,2013-04-03 15:53:00
12:53 PM,46.0,15.1,29,30.37,10.0,Variable,5.8,-,N/A,,Clear,0,2013-04-03 16:53:00
1:53 PM,48.0,14.0,26,30.35,10.0,ENE,12.7,18.4,N/A,,Clear,60,2013-04-03 17:53:00
2:53 PM,48.9,12.9,24,30.35,10.0,NE,5.8,-,N/A,,Clear,50,2013-04-03 18:53:00
3:53 PM,51.1,16.0,25,30.35,10.0,East,9.2,17.3,N/A,,Clear,80,2013-04-03 19:53:00
4:53 PM,51.1,12.9,22,30.35,10.0,NE,10.4,18.4,N/A,,Clear,40,2013-04-03 20:53:00
5:53 PM,48.9,12.9,24,30.33,10.0,ENE,10.4,-,N/A,,Clear,70,2013-04-03 21:53:00
6:53 PM,48.0,12.0,24,30.31,10.0,NE,11.5,-,N/A,,Clear,50,2013-04-03 22:53:00
7:53 PM,46.0,14.0,28,30.30,10.0,ENE,11.5,-,N/A,,Clear,60,2013-04-03 23:53:00
8:53 PM,43.0,14.0,31,30.30,10.0,NE,8.1,-,N/A,,Clear,50,2013-04-04 00:53:00
9:53 PM,42.1,14.0,32,30.31,10.0,NE,6.9,-,N/A,,Clear,50,2013-04-04 01:53:00
10:53 PM,41.0,15.1,35,30.32,10.0,ENE,6.9,-,N/A,,Clear,60,2013-04-04 02:53:00
11:53 PM,39.9,16.0,38,30.30,10.0,ENE,6.9,-,N/A,,Clear,60,2013-04-04 03:53:00